Simultaneous Nadir Overpasses (SNOs) Predictions

Prediction of SNOs between FY3D and TERRA Satellite Orbit:

Table of predicted SNOs for the next 14.0 days since TLE Epoch: 8/30/2024
Index Date (FY3D) Time (FY3D) Lat,Lon (FY3D) SZA (FY3D ) Date (TERRA) Time (TERRA) Lat,Lon (TERRA) SZA (TERRA ) Distance(km) Time Diff (sec)
1 09/01/2024 05:49:12 76.12, 93.01 67.96 09/01/2024 05:49:29 76.13, 92.91 67.97 3.06 17
2 09/01/2024 06:39:55 -76.07, -99.49 112.09 09/01/2024 06:38:51 -76.09, -99.54 112.06 3.19 64
3 09/03/2024 17:01:58 76.14, -75.19 68.88 09/03/2024 17:02:16 76.15, -75.27 68.89 2.60 18
4 09/03/2024 17:52:42 -76.13, 92.16 111.12 09/03/2024 17:51:38 -76.12, 92.30 111.13 3.77 64
5 09/06/2024 04:14:44 76.17, 116.55 69.83 09/06/2024 04:15:02 76.16, 116.53 69.82 1.22 18
6 09/06/2024 05:05:27 -76.11, -75.92 110.22 09/06/2024 05:04:24 -76.14, -75.88 110.20 3.11 63
7 09/08/2024 15:27:29 76.17, -51.60 70.76 09/08/2024 15:27:47 76.16, -51.70 70.74 3.09 18
8 09/08/2024 16:18:13 -76.15, 115.79 109.25 09/08/2024 16:17:09 -76.14, 115.91 109.27 3.50 64
9 09/11/2024 02:40:14 76.19, 140.19 71.72 09/11/2024 02:40:30 76.20, 140.20 71.72 0.44 16
10 09/11/2024 03:30:57 -76.12, -52.24 108.35 09/11/2024 03:29:53 -76.14, -52.32 108.33 2.75 64
11 09/13/2024 13:52:59 76.23, -28.07 72.70 09/13/2024 13:53:12 76.23, -27.92 72.69 3.90 13



Historial Predications of SNOs between FY3D and TERRA
